Location: Garden Park
(34.0906°N, 117.2695°W)
Time: 23:08:04
(UTC+00:00)

Hubble Space Telescope - Pass Details

Date: 22 August 2024
Orbit: 505 x 509 km, 28.5° (Epoch: 16 September)

Event Time Altitude Azimuth Distance (km) Brightness Sun altitude
Exits shadow 11:18:58 10° 146° (SE) 1,693 3.3 -23.0°
Drops below altitude 10° 11:19:01 10° 145° (SE) 1,705 3.3 -23.0°
Sets 11:21:36 0° 129° (SE) 2,589 4.5 -22.5°
